Weather History for Washington, GA

Change the Weather History Date:

Monday, May 5, 2014

  Actual Average (KDBN) Record (KDBN)
Temperature  
Mean Temperature 76 °F -  
Max Temperature 89 °F 81 °F 95 °F (1955)
Min Temperature 64 °F 52 °F 40 °F (1971)
Cooling Degree Days 12    
Growing Degree Days 26 (Base 50)    
Moisture  
Dew Point 52 °F    
Average Humidity 44    
Maximum Humidity 64    
Minimum Humidity 24    
Precipitation  
Precipitation 0.00 in - - ()
Sea Level Pressure  
Sea Level Pressure 29.98 in    
Wind  
Wind Speed 7 mph (West)    
Max Wind Speed 13 mph    
Max Gust Speed 20 mph    
Visibility 10 miles    
Events      
Averages and records for this station are not official NWS values.
T = Trace of Precipitation, MM = Missing Value Source: NWS Daily Summary

Daily Weather History Graph

Daily Weather History Graph

Search for Another Location

Airport:

Trip Planner

Search our weather history database for the weather conditions in past years. The results will help you decide how hot, cold, wet, or windy it might be!

Date:

Astronomy

May. 05, 2014 Rise Set
Actual Time 6:38 AM EDT 8:17 PM EDT
Civil Twilight 6:11 AM EDT 8:44 PM EDT
Nautical Twilight 5:39 AM EDT 9:17 PM EDT
Astronomical Twilight 5:05 AM EDT 9:51 PM EDT
Moon 11:56 AM EDT (5/5) 1:01 AM EDT (5/5)
Length of Visible Light 14h 32m
Length of Day
13h 39m
Waxing Crescent, 36% of the Moon is Illuminated
May 5
Waxing Crescent
May 6
First Quarter
May 14
Full
May 21
Last Quarter
May 28
New

Hourly Weather History & Observations

Time (EDT) Temp. Heat Index Dew Point Humidity Pressure Visibility Wind Dir Wind Speed Gust Speed Precip Events Conditions
12:15 AM 68.0 °F - 50.0 °F 52% 30.01 in 10.0 mi West 6.9 mph - N/A   Clear
12:35 AM 64.4 °F - 50.0 °F 59% 30.01 in 10.0 mi WSW 5.8 mph - N/A   Clear
12:55 AM 64.4 °F - 51.8 °F 64% 30.01 in 10.0 mi WSW 4.6 mph - N/A   Clear
1:15 AM 64.4 °F - 51.8 °F 64% 30.01 in 10.0 mi WSW 5.8 mph - N/A   Clear
1:35 AM 64.4 °F - 50.0 °F 59% 30.01 in 10.0 mi WSW 5.8 mph - N/A   Clear
1:55 AM 64.4 °F - 50.0 °F 59% 30.01 in 10.0 mi West 5.8 mph - N/A   Clear
2:15 AM 66.2 °F - 50.0 °F 56% 30.01 in 10.0 mi West 8.1 mph - N/A   Clear
2:35 AM 66.2 °F - 50.0 °F 56% 30.00 in 10.0 mi West 8.1 mph - N/A   Clear
2:55 AM 68.0 °F - 50.0 °F 52% 30.00 in 10.0 mi West 9.2 mph - N/A   Clear
3:15 AM 68.0 °F - 50.0 °F 52% 30.00 in 10.0 mi West 6.9 mph - N/A   Clear
3:35 AM 66.2 °F - 50.0 °F 56% 30.01 in 10.0 mi West 6.9 mph - N/A   Clear
3:55 AM 66.2 °F - 50.0 °F 56% 30.01 in 10.0 mi West 6.9 mph - N/A   Clear
4:15 AM 66.2 °F - 50.0 °F 56% 30.01 in 10.0 mi West 8.1 mph - N/A   Clear
4:35 AM 66.2 °F - 50.0 °F 56% 30.01 in 10.0 mi West 9.2 mph - N/A   Clear
4:55 AM 66.2 °F - 50.0 °F 56% 30.01 in 10.0 mi West 8.1 mph - N/A   Clear
5:15 AM 66.2 °F - 50.0 °F 56% 30.01 in 10.0 mi West 6.9 mph - N/A   Clear
5:35 AM 64.4 °F - 50.0 °F 59% 30.01 in 10.0 mi West 5.8 mph - N/A   Clear
5:55 AM 64.4 °F - 50.0 °F 59% 30.01 in 10.0 mi West 5.8 mph - N/A   Clear
6:15 AM 64.4 °F - 50.0 °F 59% 30.01 in 10.0 mi West 6.9 mph - N/A   Clear
6:35 AM 68.0 °F - 50.0 °F 52% 30.02 in 10.0 mi West 9.2 mph - N/A   Clear
6:55 AM 68.0 °F - 50.0 °F 52% 30.03 in 10.0 mi West 8.1 mph 16.1 mph N/A   Clear
7:15 AM 68.0 °F - 50.0 °F 52% 30.03 in 10.0 mi West 6.9 mph - N/A   Clear
7:35 AM 68.0 °F - 50.0 °F 52% 30.03 in 10.0 mi West 8.1 mph - N/A   Clear
7:55 AM 68.0 °F - 51.8 °F 56% 30.03 in 10.0 mi West 6.9 mph - N/A   Clear
8:15 AM 71.6 °F - 53.6 °F 53% 30.04 in 10.0 mi NW 5.8 mph - N/A   Clear
8:35 AM 71.6 °F - 53.6 °F 53% 30.05 in 10.0 mi WNW 5.8 mph - N/A   Clear
8:55 AM 73.4 °F - 55.4 °F 53% 30.05 in 10.0 mi WNW 8.1 mph - N/A   Clear
9:15 AM 75.2 °F - 53.6 °F 47% 30.04 in 10.0 mi WNW 6.9 mph - N/A   Clear
9:35 AM 75.2 °F - 53.6 °F 47% 30.04 in 10.0 mi WNW 5.8 mph - N/A   Clear
9:55 AM 77.0 °F - 53.6 °F 44% 30.04 in 10.0 mi WNW 9.2 mph - N/A   Clear
10:15 AM 80.6 °F 80.5 °F 55.4 °F 42% 30.04 in 10.0 mi West 8.1 mph - N/A   Clear
10:35 AM 80.6 °F 80.3 °F 53.6 °F 39% 30.03 in 10.0 mi WNW 11.5 mph 19.6 mph N/A   Clear
10:55 AM 82.4 °F 81.4 °F 53.6 °F 37% 30.03 in 10.0 mi West 10.4 mph - N/A   Clear
11:15 AM 82.4 °F 81.4 °F 53.6 °F 37% 30.03 in 10.0 mi West 8.1 mph - N/A   Clear
11:35 AM 82.4 °F - 51.8 °F 35% 30.02 in 10.0 mi WNW 11.5 mph - N/A   Clear
11:55 AM 82.4 °F - 51.8 °F 35% 30.02 in 10.0 mi NW 8.1 mph 19.6 mph N/A   Clear
12:15 PM 86.0 °F - 51.8 °F 31% 30.02 in 10.0 mi WNW 10.4 mph - N/A   Clear
12:35 PM 86.0 °F - 51.8 °F 31% 30.02 in 10.0 mi West 9.2 mph - N/A   Clear
12:55 PM 86.0 °F - 51.8 °F 31% 30.01 in 10.0 mi West 6.9 mph - N/A   Clear
1:15 PM 86.0 °F - 51.8 °F 31% 30.00 in 10.0 mi West 9.2 mph 16.1 mph N/A   Clear
1:35 PM 86.0 °F - 51.8 °F 31% 29.99 in 10.0 mi WSW 10.4 mph - N/A   Clear
1:55 PM 87.8 °F - 51.8 °F 29% 29.98 in 10.0 mi West 8.1 mph - N/A   Clear
2:15 PM 87.8 °F - 51.8 °F 29% 29.98 in 10.0 mi WSW 10.4 mph - N/A   Clear
2:35 PM 87.8 °F - 50.0 °F 27% 29.97 in 10.0 mi WSW 8.1 mph 16.1 mph N/A   Clear
2:55 PM 89.6 °F - 50.0 °F 26% 29.97 in 10.0 mi WSW 10.4 mph - N/A   Clear
3:15 PM 89.6 °F - 50.0 °F 26% 29.96 in 10.0 mi West 11.5 mph - N/A   Clear
3:35 PM 89.6 °F - 50.0 °F 26% 29.95 in 10.0 mi West 11.5 mph 16.1 mph N/A   Clear
3:55 PM 89.6 °F - 48.2 °F 24% 29.94 in 10.0 mi West 11.5 mph 18.4 mph N/A   Clear
4:15 PM 89.6 °F - 50.0 °F 26% 29.92 in 10.0 mi WSW 6.9 mph 17.3 mph N/A   Clear
4:35 PM 89.6 °F - 48.2 °F 24% 29.92 in 10.0 mi WSW 10.4 mph 18.4 mph N/A   Clear
4:55 PM 89.6 °F - 50.0 °F 26% 29.91 in 10.0 mi West 12.7 mph - N/A   Clear
5:15 PM 89.6 °F - 50.0 °F 26% 29.91 in 10.0 mi WSW 6.9 mph - N/A   Clear
5:35 PM 89.6 °F - 48.2 °F 24% 29.91 in 10.0 mi West 9.2 mph 18.4 mph N/A   Clear
5:55 PM 89.6 °F - 50.0 °F 26% 29.91 in 10.0 mi West 9.2 mph - N/A   Clear
6:15 PM 87.8 °F - 50.0 °F 27% 29.91 in 10.0 mi WSW 9.2 mph - N/A   Clear
6:35 PM 87.8 °F - 50.0 °F 27% 29.91 in 10.0 mi WSW 5.8 mph - N/A   Clear
6:55 PM 87.8 °F - 50.0 °F 27% 29.90 in 10.0 mi WSW 6.9 mph - N/A   Clear
7:15 PM 86.0 °F - 51.8 °F 31% 29.91 in 10.0 mi WSW 5.8 mph - N/A   Clear
7:35 PM 86.0 °F 84.2 °F 53.6 °F 33% 29.91 in 10.0 mi SW 3.5 mph - N/A   Clear
7:55 PM 82.4 °F 81.4 °F 53.6 °F 37% 29.91 in 10.0 mi SW 4.6 mph - N/A   Clear
8:15 PM 80.6 °F 80.3 °F 53.6 °F 39% 29.91 in 10.0 mi SW 3.5 mph - N/A   Clear
8:35 PM 77.0 °F - 59.0 °F 54% 29.92 in 10.0 mi Calm Calm - N/A   Clear
8:55 PM 75.2 °F - 57.2 °F 53% 29.92 in 10.0 mi SW 3.5 mph - N/A   Clear
9:15 PM 75.2 °F - 55.4 °F 50% 29.92 in 10.0 mi SW 4.6 mph - N/A   Clear
9:35 PM 75.2 °F - 55.4 °F 50% 29.92 in 10.0 mi WSW 5.8 mph - N/A   Clear
9:55 PM 75.2 °F - 55.4 °F 50% 29.93 in 10.0 mi WSW 5.8 mph - N/A   Clear
10:15 PM 75.2 °F - 55.4 °F 50% 29.94 in 10.0 mi WSW 6.9 mph - N/A   Clear
10:35 PM 75.2 °F - 53.6 °F 47% 29.94 in 10.0 mi WSW 8.1 mph - N/A   Clear
10:55 PM 75.2 °F - 53.6 °F 47% 29.94 in 10.0 mi WSW 4.6 mph - N/A   Clear
11:15 PM 75.2 °F - 55.4 °F 50% 29.94 in 10.0 mi SW 4.6 mph - N/A   Clear
11:35 PM 75.2 °F - 55.4 °F 50% 29.94 in 10.0 mi WSW 4.6 mph - N/A   Clear
11:55 PM 75.2 °F - 57.2 °F 53% 29.94 in 10.0 mi WSW 6.9 mph - N/A   Clear